Location: Martin Dies, Jr. State Park
(30.8429°N, 94.1720°W)
Time: 12:26:00
(UTC-06:00)

N. Korean satellite - Visible Passes

Search period start: 22 November 2019 00:00
Search period end: 02 December 2019 00:00
Orbit: 456 x 506 km, 97.2° (Epoch: 21 November)

Date Brightness Start Highest point End Pass type
(mag) Time Alt. Az. Time Alt. Az. Time Alt. Az.
22 Nov 9.8 05:15:10 10° NE 05:17:31 16° E 05:19:50 10° SE visible
23 Nov 6.8 06:22:01 10° N 06:25:32 47° WNW 06:28:59 10° SSW visible
23 Nov 10.0 18:26:38 10° SW 18:28:36 14° W 18:30:36 10° WNW visible
24 Nov 6.9 05:56:34 10° NNE 06:00:12 69° E 06:03:45 10° S visible
24 Nov 8.8 17:59:50 10° SSW 18:03:06 31° W 18:06:25 10° NNW visible
25 Nov 8.8 05:31:36 10° NE 05:34:45 28° E 05:37:51 10° SSE visible
26 Nov 10.0 05:07:38 10° ENE 05:09:14 12° E 05:10:48 10° ESE visible
27 Nov 6.5 06:13:44 10° N 06:17:19 62° WNW 06:20:49 10° SSW visible
27 Nov 9.8 18:17:44 10° SW 18:20:19 18° W 18:22:56 10° NW visible
28 Nov 7.5 05:48:24 10° NNE 05:51:56 50° E 05:55:22 10° S visible
28 Nov 8.2 17:51:22 10° S 17:54:50 41° W 17:58:21 10° NNW visible
29 Nov 9.3 05:23:38 10° NE 05:26:27 21° E 05:29:12 10° SSE visible
30 Nov 10.4 18:36:48 10° WSW 18:37:33 10° W 18:38:17 10° W visible
01 Dec 6.4 06:05:27 10° N 06:09:02 84° WNW 06:12:33 10° SSW visible
01 Dec 9.4 18:09:01 10° SSW 18:12:00 23° W 18:15:01 10° NW visible
